Yunyao-1 33

operational
NORAD ID: 61898 Int'l Des: NNA 2024-205 Owner: YYAO Country: CN
LEOCIRCULARRETROGRADESSO

About Yunyao-1 33

Description loading...

Live Position

Loading 3D Globe...

Upcoming Passes

Altitude History

Altitude vs Time

uPlot chart will show altitude changes over time

Two-Line Element Set

1 61898U 24205E 26018.93415566 .00013435 00000-0 60832-3 0 9999
2 61898 97.4294 93.6731 0025173 187.2032 172.8846 15.20716534 65651
Epoch: Jan 18, 2026 • Age: 14 hours

Current Status

Altitude 515.3 km
Velocity 7.61 km/s
Sub-Earth Point -57.27°S, 37.73°W
Launch Date Nov 11, 2024
Age 1.1 years
Type other

Technical Details

Classification Payload
Mass 50.00 kg
Dry Mass 50.00 kg
Total Mass 50.00 kg
Length 2.00 m
Diameter 1.50 m
Span 5.00 m
Shape Box + pan
Manufacturer CGSTL
Bus Type YY-1
Phase Status In Orbit
Owner/State YYAO/CN

Large Constellations

Loading constellations...